DECAYED

STARLINK-30960, 58456 (Decayed)

Orbit data source: Space-Track

STARLINK-30960, 58456 was a payload satellite owned by SpaceX/Seattle (US) in LEO that was launched on Tue, 28 Nov 2023 UTC via an FALCON 9 launch vehicle from the Air Force Eastern Test Range (AFETR). Payload-class satellites include a variety of spacecraft equipped with specific instruments for various scientific and technological missions. These include communications satellites like Starlink; space stations such as the ISS; scientific satellites like the Hubble; Earth observation satellites from companies like Planet Labs, Umbra, and HawkEye 360; GPS; miniature CubeSats for education and research; and military/defense satellites.

Not visible in the next 10 days
Identifier
58456, 2023-183V
Orbit
Decayed
Country
Flag of USUS
Related business
Manufacturer
SpaceX/Seattle
Mission
Decayed Commercial Communications
Bus & Motor
STARLINK V2M, Unknown motor
Mass
730 kg wet, ~700 kg dry
Launch date (UTC)
2023-11-28 (3 years ago)
Launch vehicle
FALCON 9
Launch site
Air Force Eastern Test Range (AFETR)
Object type
Payload
Rocket body
Debris
Shape & HBR
Box + 2 Pan, 17.7 m
Radar Cross Section
33.884 m², Large (>1 m²)

Expand to show TLE details & history
Last TLE update: 3 months ago

TLE from 3 months ago
0 STARLINK-30960
1 58456U 23183V   26089.67379309  .09230809  92890-5  30559-2 0  9992
2 58456  42.9797 177.6801 0027728  20.5487 339.6509 16.23729297131176
Epoch: 2026-03-30T16:10Z
TLE epoch observation values (Epoch: 2026-03-30T16:10:15.722Z)
Latitude
-0.00003°
Longitude
107.05261°
Altitude
192.092 km
Speed
7.803 km/s
True Right ascension
11h 50m 43s
True Declination
0° 00' 00"
Sunlit
Object was in full shadow at epoch
Visualization orbit readout
Latitude
Unknown
Longitude
Unknown
Altitude
Unknown
Speed
Unknown
Apparent Right ascension
Unknown
Apparent Declination
Unknown
Sunlit
N/A
Visualization observer readout
Local Sidereal Time
21:29:28
Azimuth
Unknown
Elevation
Unknown
Doppler factor
Unknown
Orbital elements
Apogee altitude
229.747 km
Perigee altitude
193.203 km
Semi-major axis
6,589.612 km
Eccentricity
0.00277
Inclination
42.9797°
RAAN
177.6801°
Arg. of periapsis
20.5487°
True anomaly
339.54005°
Mean anomaly
339.6509°
Eccentric anomaly
339.59551°
Mean motion
4.05745 °/min
Orbital period
88.73 mins
BSTAR
0.0030559
Loading maneuver chart data...
Computing Atmospheric mass density...
Loading historical data...
Loading historical data...
Loading historical data...
Loading historical data...
Loading historical data...
Loading historical data...
Loading historical data...

Documentation

Showing up to 5 results
|